Simultaneous Nadir Overpasses (SNOs) Predictions

Prediction of SNOs between GOES-16 and METOP-C Satellite Orbit:

Table of predicted SNOs for the next 14.0 days since TLE Epoch: 3/2/2024
Index Date Time (GOES-16) GOES-16 Lat,Lon METOP-C Lat,Lon Distance(km) Time Diff (sec)
1 03/02/2024 14:37:00 0.05, -75.22 0.33, -76.48 143.13 80
2 03/03/2024 14:13:40 0.04, -75.22 -0.78, -71.48 425.97 80
3 03/05/2024 02:35:22 -0.05, -75.20 -0.22, -76.09 100.24 80
4 03/06/2024 02:12:02 -0.04, -75.21 0.89, -71.09 469.08 80
5 03/07/2024 14:33:33 0.05, -75.24 0.14, -75.65 47.15 80
6 03/10/2024 02:31:54 -0.05, -75.23 -0.06, -75.25 2.40 80
7 03/12/2024 14:27:27 0.05, -75.29 -0.08, -74.83 53.19 80
8 03/14/2024 02:49:06 -0.05, -75.29 -0.99, -79.41 470.63 80
9 03/15/2024 02:25:47 -0.04, -75.30 0.13, -74.42 100.06 80
